www.pogodaiklimat.ru

Погода и климат >> Архив погоды >> Россия >> Якутия >> Чурапча


ПОГОДА в Чурапче

  • Прогноз погоды в Чурапче
  • Монитор погоды в Чурапче
  • Климат города

АРХИВ ПОГОДЫ в Чурапче

Время (UTC), дата Ветер
(напр.,м/с)
 
Видим.   Явления Облачность Т
(С)
Тd
(С)
f
(%)
Тe
(С)
Тes
(С)
Комфортность P
(гПа)
Po
(гПа)
Тmin
(С)
Tmax
(С)
R
(мм)
R24
(мм)
S
(см)
06 17.05 ЮВ 5 50 км 8/0
[Ci sp]
+11.5 -9.5 22 +10 +13 994.7 973.1
09 17.05 ЮВ 5 50 км 9/9 600 м
[Sc]
+12.9 -11.2 18 +11 +11 992.3 970.9
12 17.05 ЮВ 5 50 км 10/10 600 м
[Sc]
+11.3 -7.2 27 +9 +9 989.8 968.3 +13.3
15 17.05 З 5 10 км слабый дождь 10/10 600 м
[Sc]
+6.3 +2.5 77 +2 +2 991.4 969.5
18 17.05 З 3 50 км {дождь} 10/10 600 м
[Cu hum]
+3.9 +1.6 85 0 0 992.7 970.6
21 17.05 З 4 50 км 10/10 600 м
[Cu hum]
+1.4 -0.8 85 -4 -4 994.3 972.0
00 18.05 ЮЗ 5 50 км 9/9 600 м
[Sc]
+2.3 -0.7 81 -3 -3 995.7 973.4 +1.3 0.6
03 18.05 ЮЗ 5 50 км 9/9 600 м
[Sc]
+2.3 -0.7 81 -3 -2 995.7 973.4 +1.3 0.6
06 18.05 З 5 4000 м слабый дождь со снегом 10/0
[As op]
+0.9 -0.5 90 -5 -4 997.8 975.4
09 18.05 З 4
{12}
50 км 6/6 600 м
[Cu hum]
+7.6 -10.7 26 +5 +6 999.8 977.8
12 18.05 З 3 50 км 3/3 600 м
[Sc diur, vesp]
+3.8 -8.8 39 +1 +1 1002.7 980.4 +8.4 1
15 18.05 З 2 50 км ясно -0.8 -9.3 53 -4 -4 1004.8 982.1
18 18.05 ЮЗ 3 50 км ясно -3.1 -8.9 64 -8 -8 1004.9 982.0
21 18.05 З 5 50 км 1/0
[Ci sp]
-0.8 -9.3 53 -6 -5 1004.4 981.7
00 19.05 З 8
{14}
50 км 4/3 600 м
[Cu hum Ci fib]
+1.4 -12.8 34 -5 -4 1004.6 982.0 -5.0
03 19.05 СЗ 6
{13}
50 км 4/1 1000 м
[Cu hum Ci fib]
+3.6 -11.3 33 -1 +3 1004.9 982.5
06 19.05 З 6
{13}
50 км 4/4 1000 м
[Cu hum]
+4.8 -12.4 27 +1 +3 1006.0 983.7
09 19.05 З 5
{13}
50 км 5/5 1000 м
[Cu hum]
+4.1 -12.8 28 0 +1 1007.1 984.7
12 19.05 СЗ 2 50 км 1/1 1000 м
[Sc diur, vesp]
+0.8 -9.9 45 -2 -2 1008.7 986.0 +5.8
15 19.05 З 2 50 км 1/1 1000 м
[Sc diur, vesp]
-3.5 -12.4 50 -7 -7 1010.5 987.4
18 19.05 ЮЗ 4 50 км 3/3 1000 м
[Sc]
-4.3 -11.6 57 -10 -10 1010.6 987.4
21 19.05 ЮЗ 4 50 км 8/8 600 м
[Sc diur, vesp]
-2.7 -11.0 53 -8 -8 1009.8 986.8
00 20.05 З 6
{13}
50 км слабый снег 10/10 600 м
[Sc]
-0.8 -9.8 50 -7 -7 1009.6 986.7 -4.5 0.0
03 20.05 З 6
{12}
50 км {снег} 9/9 600 м
[Sc diur, vesp]
+0.6 -8.9 49 -5 -5 1009.3 986.6
06 20.05 З 4
{10}
50 км {снег} 9/9 600 м
[Sc diur, vesp]
+1.3 -7.8 51 -3 -3 1008.7 986.0
09 20.05 СЗ 3
{11}
50 км 9/9 600 м
[Sc diur, vesp]
+0.6 -6.3 60 -3 -3 1008.9 986.2
12 20.05 СЗ 3
{11}
50 км 8/8 600 м
[Sc]
-0.7 -9.7 51 -5 -5 1009.3 986.5 +3.1 0.0
15 20.05 З 2 20 км 4/4 600 м
[Sc]
-3.1 -9.4 62 -7 -7 1009.8 986.8
18 20.05 З 2 20 км 9/9 600 м
[Sc]
-4.9 -6.9 86 -9 -9 1009.9 986.7
21 20.05 З 4 50 км 8/8 600 м
[Sc Ci fib]
-3.0 -6.4 77 -9 -9 1010.2 987.2
00 21.05 З 2 50 км 10/10 600 м
[Sc]
-2.0 -8.2 63 -5 -5 1010.7 987.7 -4.9
03 21.05 З 3 50 км 9/9 600 м
[Sc]
-0.3 -8.4 54 -4 -3 1010.8 988.0
06 21.05 З 4 50 км 9/9 600 м
[Sc]
+2.9 -7.6 46 -1 -0 1010.6 988.0
09 21.05 З 3 50 км 9/9 600 м
[Sc diur, vesp]
+3.1 -9.2 40 0 0 1011.0 988.4
12 21.05 ЮЗ 3 50 км 9/9 600 м
[Sc]
+1.6 -8.8 46 -2 -2 1011.3 988.6 +3.8
15 21.05 ЮЗ 2 50 км 3/0
[Ci fib]
-2.1 -8.8 60 -6 -6 1011.6 988.6
18 21.05 штиль 0 50 км 1/0
[Ci fib]
-6.1 -7.6 89 -7 -7 1011.9 988.6
21 21.05 Ю 1 50 км ясно -2.0 -6.2 73 -4 -2 1011.9 988.9
00 22.05 СВ 2 50 км 3/3
[Cu hum]
+4.5 -8.7 38 +3 +9 1010.5 988.1 -6.2
03 22.05 В 2 50 км 3/0
[Ci fib]
+7.4 -8.6 31 +6 +18 опасность
простуды
1009.7 987.5
06 22.05 В 2 50 км 3/0
[Ci fib]
+9.3 -8.8 27 +8 +17 1007.9 985.9
09 22.05 С 1 50 км 3/0
[Ci fib]
+10.8 -8.1 26 +11 +14 1007.6 985.7
12 22.05 СВ 2 50 км 3/0
[Ac trans Ci fib]
+8.1 -2.9 46 +7 +7 1007.8 985.7 +11.7
15 22.05 СВ 1 50 км 4/0
[Ci fib]
+3.3 -5.2 54 +2 +2 1007.6 985.1
18 22.05 СВ 3 50 км 3/0
[Ci fib]
+1.9 -8.2 47 -2 -2 1007.4 984.8
21 22.05 СВ 3 50 км 5/0
[Ac trans Ci fib]
+5.6 -8.6 35 +3 +4 1006.7 984.4
00 23.05 В 5 50 км 3/0
[Ci fib]
+11.1 -10.7 21 +9 +13 1005.4 983.6 +1.2
03 23.05 В 5 50 км 3/1 600 м
[Cu med, cong Ci fib]
+15.4 -5.7 23 +14 +20 1003.6 982.2
06 23.05 ЮВ 3 50 км 5/3 600 м
[Cb cap Ci fib]
+17.9 -5.7 20 +18 +23 1002.9 981.6
09 23.05 В 2 50 км 5/5 600 м
[Cu hum]
+18.0 -6.5 18 +19 +20 1002.9 981.7
12 23.05 СВ 2 50 км 3/3 600 м
[Cu hum]
+14.4 -4.6 27 +14 +14 1003.8 982.3 +19.5
15 23.05 В 1 50 км 3/0
[Ac trans]
+5.1 -3.7 53 +4 +4 1005.1 982.8
18 23.05 штиль 0 50 км 4/0
[Ci fib]
+2.0 -2.3 73 +1 +1 1006.0 983.5
21 23.05 ЮЗ 3 50 км 6/6 600 м
[Sc]
+4.6 -4.1 53 +2 +2 1007.5 985.1
00 24.05 ЮЗ 3 50 км 6/3 600 м
[Sc Ci fib]
+12.9 -3.7 31 +12 +17 1006.2 984.5 +1.3
03 24.05 ЮЗ 2 50 км 8/0
[Ci fib]
+17.7 -2.9 24 +18 +29 1004.3 983.0

 

Местоположение метеостанции Чурапча (Якутия, Россия): широта 62.03 долгота 132.60 высота над уровнем моря 186 м.

В архиве по умолчанию представлена погода в Чурапче за последнюю неделю. Архивные данные за месяц целиком и за предыдущие месяцы, начиная с января 2011 года, Вы можете получить, выбрав интересующий диапазон дат из раскрывающегося списка и нажав кнопку "Ввод!".

Внимание! Время в таблицах - всемирное. Для получения местного времени необходимо прибавить поправку, которая в Чурапче равна 9 ч.

Смотрите также архив погоды в соседних городах и на ближайших метеорологических станциях:

Погода в Ытык-Кюёле (Якутия, Россия) (60 км)
Погода в Крест-Хальджае (Якутия, Россия) (128 км)
Погода в Амге (Якутия, Россия) (131 км)
Погода в Верхоянском Перевозе (Якутия, Россия) (147 км)
Погода в Охотском Перевозе (Якутия, Россия) (153 км)
Погода в Якутске (Якутия, Россия) (157 км)
Погода в Намцах (Якутия, Россия) (173 км)
Погода в Покровске (Якутия, Россия) (194 км)
Погода в Усть-Мае (Якутия, Россия) (210 км)
Погода в Тегюльте (Якутия, Россия) (222 км)

Пояснения к столбцам:

Ветер - указаны скорость ветра в м/с - средняя за 10 мин, порывы в срок и между сроками (в фигурных скобках) и направление, откуда дует ветер: С - северный, СВ - северо-восточный, В - восточный, ЮВ - юго-восточный, Ю - южный, ЮЗ - юго-западный, З - западный, СЗ - северо-западный.
Видимость - горизонтальная дальность видимости в метрах или километрах. При видимости от 1 до 10 км при отсутствии осадков обычно наблюдается дымка, при ухудшении видимости до 1 км и менее - туман. В сухую погоду видимость может ухудшаться дымом, пылью или мглою.
Явления - указаны атмосферные явления, наблюдавшиеся в срок или в последний час перед сроком; фигурными скобками обозначены явления, наблюдавшиеся между сроками (за 1-3 часа до срока); квадратными скобками обозначены град или гололедные отложения с указанием их диаметра в мм.
Облачность - указаны через наклонную черту общая и нижняя облачность в баллах и высота нижней границы облаков в метрах; квадратными скобками обозначены формы облаков: Ci - перистые, Cs - перисто-слоистые, Cc - перисто-кучевые, Ac - высококучевые, As - высокослоистые, Sc - слоисто-кучевые, Ns - слоисто-дождевые, Cu - кучевые, Cb - кучево-дождевые. Подробнее классификацию облаков см. в Атласе облаков (PDF).
T - Температура воздуха - температура, измеренная на высоте 2 м над землей.
Td - Температура точки росы - температура, при понижении до которой содержащийся в воздухе водяной пар достигнет насыщения.
f - Относительная влажность воздуха - влажноcть воздуха, измеренная на высоте 2 м над землей.
Te - Эффективная температура - температура, которую ощущает одетый по сезону человек в тени. Характеристика душности погоды. При расчете учитывается влияние влажности воздуха и скорости ветра на теплоощущения человека.
Tes - Эффективная температура на солнце - температура, которую ощущает человек, с поправкой на солнечный нагрев. Характеристика знойности погоды. Зависит от высоты солнца над горизонтом, облачности и скорости ветра. Ночью, в пасмурную погоду, а также при ветре 12 м/с и более поправка равна нулю.
P - Атмосферное давление - приведенное к уровню моря атмосферное давление.
Po - Атмосферное давление - измеренное на уровне метеостанции атмосферное давление.
Tmin - Минимальная температура - минимум температуры воздуха на высоте 2 м над землей.
Tmax - Максимальная температура - максимум температуры воздуха на высоте 2 м над землей.
R - Количество осадков - Количество выпавших осадков за период времени, мм. При наведении курсора мыши на число - период времени, за который выпало указанное количество осадков.
R24 - Количество осадков - Количество выпавших осадков за 24 часа, мм.
S - Снежный покров - Высота снежного покрова, см. При наведении курсора мыши на число - состояние снежного покрова и степень покрытия местности в баллах.